Simultaneous Nadir Overpasses (SNOs) Predictions

Prediction of SNOs near US between AQUA and NPP Satellite Orbit:

Table of predicted SNOs near US for the next 10.0 days since TLE Epoch: 9/26/2014
Index Date (AQUA) Time (AQUA) AQUA Lat,Lon Date (NPP) Time (NPP) NPP Lat,Lon Distance(km) Time Diff (sec)
1 09/26/2014 18:08:53 20.09, -71.34 09/26/2014 18:10:31 19.86, -72.43 117.83 98
2 09/26/2014 19:51:46 34.52, -99.71 09/26/2014 19:56:05 34.14,-101.61 179.92 259
3 09/29/2014 07:45:54 20.02, -89.58 09/29/2014 07:43:49 20.00, -89.39 20.39 125
4 09/29/2014 09:17:24 46.59,-106.73 09/29/2014 09:17:43 46.58,-106.75 1.27 19
5 10/01/2014 20:14:37 49.97,-109.59 10/01/2014 20:07:02 50.07,-108.92 49.49 455
6 10/04/2014 17:27:07 47.80, -66.99 10/04/2014 17:27:44 47.56, -68.19 93.59 37
7 10/04/2014 19:03:29 38.79, -88.60 10/04/2014 19:06:37 38.47, -90.26 148.51 188
8 10/04/2014 20:39:51 29.74,-110.77 10/04/2014 20:45:30 29.32,-112.92 213.61 339




NCC Satellite Simultaneous Nadir Overpasses (SNOs) Prediction Service
